1517007600.38,2503,9.0,73900.8,-4.33,-30.45,-30.55,0,*61
1517007601.61,2504,9.0,73900.5,-4.33,-30.45,-30.55,0,*66
1517007602.86,2505,9.0,73904.0,-4.33,-30.61,-30.55,0,*61
1517007604.11,2506,9.0,73902.3,-4.33,-30.55,-30.55,0,*65
1517007605.31,2507,9.0,73904.8,-4.33,-30.23,-30.27,0,*60
1517007606.54,2508,9.0,73904.5,-4.29,-30.39,-30.45,0,*6B
1517007607.76,2509,9.0,73904.3,-4.29,-30.27,-30.45,0,*65
1517007609.02,2510,9.0,73908.3,-4.29,-30.55,-30.61,0,*6E
1517007610.29,2511,9.0,73904.8,-4.33,-30.61,-30.77,0,*64
1517007611.51,2512,9.0,73906.5,-4.33,-30.45,-30.55,0,*61
1517007612.77,2513,9.0,73906.3,-4.33,-30.55,-30.73,0,*65
1517007614.04,2514,9.0,73902.8,-4.29,-30.73,-30.77,0,*69
1517007615.3,2515,9.0,73906.8,-4.33,-30.55,-30.61,0,*60
1517007616.55,2516,9.06,73908.5,-4.33,-30.39,-30.55,0,*6E
1517007617.78,2517,9.0,73904.3,-4.33,-30.45,-30.73,0,*60
1517007619.05,2518,9.0,73904.5,-4.33,-30.73,-30.61,0,*69
1517007620.31,2519,9.0,73906.3,-4.29,-30.61,-30.73,0,*63
1517007621.54,2520,9.0,73906.5,-4.33,-30.45,-30.55,0,*60
1517007622.77,2521,9.0,73906.5,-4.33,-30.45,-30.55,0,*61
1517007624.03,2522,9.0,73904.5,-4.33,-30.55,-30.61,0,*64
1517007625.29,2523,9.0,73904.5,-4.33,-30.61,-30.73,0,*61
1517007626.49,2524,9.0,73908.0,-4.33,-30.45,-30.45,0,*65
1517007627.74,2525,9.0,73908.0,-4.33,-30.39,-30.55,0,*6E
1517007628.99,2526,9.0,73910.5,-4.33,-30.39,-30.55,0,*6D
1517007630.22,2527,9.0,73910.8,-4.29,-30.45,-30.55,0,*6C
1517007631.47,2528,9.0,73906.5,-4.33,-30.39,-30.55,0,*63
1517007632.74,2529,9.0,73906.8,-4.29,-30.61,-30.73,0,*60
1517007634.0,2530,9.0,73908.5,-4.29,-30.61,-30.73,0,*68
1517007635.24,2531,9.0,73910.3,-4.33,-30.45,-30.61,0,*67
1517007636.5,2532,9.0,73910.8,-4.33,-30.61,-30.61,0,*62
1517007637.76,2533,9.0,73912.5,-4.29,-30.61,-30.73,0,*6B
1517007639.03,2534,9.0,73908.5,-4.33,-30.61,-30.77,0,*63
1517007640.26,2535,9.0,73908.3,-4.33,-30.45,-30.61,0,*63
1517007641.47,2536,9.0,73910.5,-4.33,-30.27,-30.45,0,*62
1517007642.74,2537,9.0,73908.8,-4.33,-30.61,-30.73,0,*64
1517007644.0,2538,9.0,73910.8,-4.29,-30.55,-30.61,0,*64
1517007645.26,2539,9.0,73910.8,-4.33,-30.55,-30.61,0,*6E
1517007646.51,2540,9.0,73910.8,-4.33,-30.55,-30.55,0,*67
1517007647.74,2541,9.0,73910.8,-4.33,-30.45,-30.61,0,*60
1517007648.97,2542,9.0,73908.3,-4.33,-30.55,-30.45,0,*64
1517007650.19,2543,9.0,73908.8,-4.33,-30.45,-30.55,0,*65
1517007651.45,2544,9.0,73910.0,-4.33,-30.55,-30.61,0,*64
1517007652.69,2545,9.0,73912.0,-4.29,-30.45,-30.73,0,*6C
1517007653.95,2546,9.0,73908.0,-4.29,-30.55,-30.73,0,*6E
1517007655.21,2547,9.0,73908.8,-4.33,-30.55,-30.61,0,*67
1517007656.47,2548,9.0,73912.3,-4.33,-30.61,-30.73,0,*6C
1517007657.7,2549,9.0,73914.3,-4.33,-30.45,-30.39,0,*65
1517007658.96,2550,9.0,73910.8,-4.33,-30.55,-30.61,0,*61
1517007660.22,2551,9.0,73914.8,-4.33,-30.61,-30.77,0,*60
1517007661.49,2552,9.0,73908.0,-4.29,-30.61,-30.77,0,*68
1517007662.72,2553,9.0,73910.5,-4.33,-30.45,-30.61,0,*63
1517007663.95,2554,9.0,73914.0,-4.33,-30.39,-30.45,0,*69
1517007665.16,2555,9.0,73912.5,-4.33,-30.11,-30.27,0,*66
1517007666.39,2556,9.0,73910.5,-4.33,-30.27,-30.39,0,*6F
1517007667.66,2557,9.0,73914.0,-4.33,-30.73,-30.77,0,*65
1517007668.93,2558,9.0,73910.5,-4.29,-30.61,-30.77,0,*62
1517007670.19,2559,9.0,73910.0,-4.33,-30.73,-30.73,0,*6F
1517007671.46,2560,9.0,73912.3,-4.33,-30.73,-30.77,0,*61
1517007672.7,2561,9.0,73910.5,-4.33,-30.45,-30.61,0,*62
1517007673.95,2562,9.0,73912.0,-4.33,-30.55,-30.73,0,*63
1517007675.2,2563,9.0,73912.0,-4.33,-30.39,-30.55,0,*6C
1517007676.46,2564,9.0,73910.3,-4.33,-30.55,-30.73,0,*65
1517007677.71,2565,9.0,73912.5,-4.33,-30.55,-30.55,0,*60
1517007678.95,2566,9.0,73908.3,-4.33,-30.27,-30.39,0,*6C
1517007680.17,2567,9.0,73910.0,-4.33,-30.55,-30.45,0,*63
1517007681.43,2568,9.0,73910.5,-4.33,-30.55,-30.73,0,*69
1517007682.69,2569,9.0,73910.5,-4.33,-30.61,-30.61,0,*6C
1517007683.94,2570,9.0,73912.0,-4.33,-30.39,-30.55,0,*6E
1517007685.2,2571,9.0,73914.3,-4.33,-30.55,-30.73,0,*61
1517007686.44,2572,9.0,73910.8,-4.29,-30.27,-30.55,0,*68
1517007687.67,2573,9.0,73910.8,-4.33,-30.27,-30.39,0,*68
1517007688.91,2574,9.0,73912.3,-4.29,-30.11,-30.39,0,*61
1517007690.16,2575,9.0,73912.3,-4.33,-30.39,-30.39,0,*61
1517007691.42,2576,9.0,73908.8,-4.33,-30.55,-30.61,0,*65
1517007692.62,2577,9.0,73914.5,-4.33,-30.45,-30.45,0,*63
1517007693.85,2578,9.0,73918.3,-4.33,-30.45,-30.55,0,*6D
1517007695.08,2579,9.0,73912.5,-4.33,-30.05,-30.23,0,*69
1517007696.29,2580,9.0,73908.8,-4.29,-30.11,-30.23,0,*61
1517007697.52,2581,9.0,73908.0,-4.29,-30.05,-30.23,0,*65
1517007698.75,2582,9.0,73906.8,-4.33,-30.05,-30.23,0,*6D
1517007700.0,2583,9.0,73908.3,-4.29,-30.39,-30.55,0,*69
1517007701.26,2584,9.0,73910.3,-4.33,-30.55,-30.73,0,*6B
1517007702.5,2585,9.0,73908.0,-4.29,-30.45,-30.61,0,*63
1517007703.76,2586,9.0,73910.8,-4.29,-30.55,-30.73,0,*62
1517007705.03,2587,9.0,73914.3,-4.29,-30.73,-30.61,0,*64
1517007706.28,2588,9.0,73910.0,-4.33,-30.39,-30.55,0,*69
1517007707.48,2589,9.0,73908.5,-4.33,-30.45,-30.45,0,*62
1517007708.74,2590,9.0,73908.8,-4.29,-30.55,-30.73,0,*65
1517007710.0,2591,9.0,73910.5,-4.33,-30.61,-30.73,0,*68
1517007711.27,2592,9.0,73904.0,-4.29,-30.61,-30.73,0,*60
1517007712.53,2593,9.0,73904.5,-4.33,-30.73,-30.89,0,*6C
1517007713.8,2594,9.0,73910.0,-4.29,-30.89,-30.89,0,*65
1517007715.07,2595,9.0,73910.5,-4.33,-30.61,-30.77,0,*68
1517007716.34,2596,9.0,73910.3,-4.29,-30.77,-30.89,0,*66
1517007717.61,2597,9.0,73908.0,-4.33,-30.77,-30.77,0,*6D
1517007718.87,2598,9.0,73908.3,-4.33,-30.73,-30.89,0,*67
1517007720.14,2599,9.0,73906.5,-4.33,-30.73,-30.73,0,*63
1517007721.41,2600,9.0,73910.5,-4.33,-30.73,-30.77,0,*64
1517007722.67,2601,9.0,73908.3,-4.29,-30.73,-30.73,0,*6A
1517007723.94,2602,9.0,73912.5,-4.35,-30.67,-30.77,0,*65
1517007725.2,2603,9.0,73916.0,-4.35,-30.61,-30.67,0,*63
1517007726.41,2604,9.0,73914.8,-4.33,-30.45,-30.45,0,*64
1517007727.67,2605,9.0,73914.5,-4.29,-30.55,-30.61,0,*69
1517007728.94,2606,9.0,73914.0,-4.33,-30.73,-30.77,0,*62
1517007730.17,2607,9.0,73912.8,-4.33,-30.45,-30.61,0,*61
1517007731.43,2608,9.0,73908.5,-4.33,-30.55,-30.73,0,*6C
1517007732.69,2609,9.0,73912.3,-4.29,-30.55,-30.73,0,*66
1517007733.96,2610,9.0,73912.8,-4.33,-30.77,-30.89,0,*60
1517007735.24,2611,9.0,73912.3,-4.35,-30.51,-30.61,0,*65
1517007736.5,2612,9.0,73910.3,-4.33,-30.55,-30.73,0,*67
1517007737.76,2613,9.0,73908.8,-4.33,-30.77,-30.89,0,*63
1517007739.03,2614,9.0,73910.3,-4.33,-30.61,-30.77,0,*62
1517007740.29,2615,9.0,73908.3,-4.33,-30.61,-30.61,0,*64
1517007741.55,2616,9.0,73908.5,-4.29,-30.55,-30.73,0,*68
1517007742.82,2617,9.0,73910.3,-4.33,-30.73,-30.73,0,*66
1517007744.08,2618,9.0,73914.3,-4.35,-30.77,-30.83,0,*64
1517007745.29,2619,9.0,73912.5,-4.37,-30.67,-30.67,0,*6C
1517007746.57,2620,9.0,73910.5,-4.35,-30.51,-30.61,0,*67
1517007747.85,2621,9.0,73908.0,-4.35,-30.51,-30.51,0,*65
1517007749.08,2622,9.0,73912.5,-4.33,-30.39,-30.45,0,*6B
1517007750.33,2623,9.0,73914.5,-4.35,-30.33,-30.51,0,*63
1517007751.62,2624,9.0,73910.8,-4.35,-30.51,-30.61,0,*63
1517007752.88,2625,9.0,73910.8,-4.33,-30.55,-30.73,0,*63
1517007754.14,2626,9.0,73910.8,-4.35,-30.61,-30.67,0,*64
1517007755.38,2627,9.0,73912.8,-4.37,-30.51,-30.51,0,*61
1517007756.61,2628,9.0,73914.3,-4.35,-30.27,-30.45,0,*68
1517007757.87,2629,9.0,73910.8,-4.35,-30.45,-30.61,0,*6B
1517007759.13,2630,9.0,73912.0,-4.35,-30.33,-30.51,0,*61
1517007760.35,2631,9.0,73908.5,-4.37,-30.45,-30.61,0,*60
1517007761.6,2632,9.0,73910.5,-4.35,-30.45,-30.51,0,*62
1517007762.86,2633,9.0,73908.8,-4.35,-30.17,-30.33,0,*60
1517007764.12,2634,9.0,73904.5,-4.35,-30.17,-30.33,0,*67
1517007765.35,2635,9.0,73910.0,-4.35,-30.11,-30.27,0,*65
1517007766.58,2636,9.0,73910.8,-4.33,-30.05,-30.23,0,*61
1517007767.79,2637,9.0,73912.3,-4.33,-30.27,-30.27,0,*64
1517007769.02,2638,9.0,73912.0,-4.29,-30.01,-30.11,0,*61
1517007770.25,2639,9.0,73910.0,-4.33,-30.05,-30.23,0,*6E
1517007771.46,2640,9.0,73914.5,-4.29,-30.11,-30.27,0,*6A
1517007772.71,2641,9.0,73914.5,-4.33,-30.39,-30.39,0,*65
1517007773.95,2642,9.0,73912.0,-4.29,-30.27,-30.39,0,*62
1517007775.18,2643,9.0,73914.3,-4.29,-30.23,-30.39,0,*67
1517007776.43,2644,9.0,73916.3,-4.33,-30.39,-30.39,0,*60
1517007777.66,2645,9.0,73912.3,-4.29,-30.39,-30.45,0,*61
1517007778.88,2646,9.0,73912.3,-4.29,-30.27,-30.45,0,*6D
1517007780.14,2647,9.0,73912.5,-4.33,-30.73,-30.73,0,*63
1517007781.41,2648,9.0,73912.8,-4.29,-30.73,-30.89,0,*62
1517007782.64,2649,9.0,73910.3,-4.29,-30.45,-30.55,0,*67
1517007783.85,2650,9.0,73910.8,-4.29,-30.45,-30.45,0,*6E
1517007785.08,2651,9.0,73910.5,-4.29,-30.45,-30.55,0,*6E
1517007786.3,2652,9.0,73914.5,-4.33,-30.39,-30.45,0,*6C
1517007787.54,2653,9.0,73912.5,-4.33,-30.27,-30.39,0,*69
1517007788.79,2654,9.0,73914.0,-4.29,-30.39,-30.55,0,*60
1517007790.01,2655,9.0,73914.8,-4.29,-30.27,-30.45,0,*6F
1517007791.22,2656,9.0,73914.0,-4.29,-30.23,-30.27,0,*6C
1517007792.45,2657,9.0,73912.8,-4.29,-30.27,-30.39,0,*66
1517007793.71,2658,9.0,73912.8,-4.29,-30.55,-30.61,0,*61
1517007794.94,2659,9.0,73914.8,-4.29,-30.39,-30.45,0,*6C
1517007796.2,2660,9.0,73914.3,-4.29,-30.39,-30.55,0,*67
1517007797.47,2661,9.0,73916.0,-4.27,-30.39,-30.51,0,*6C
1517007798.73,2662,9.0,73916.5,-4.27,-30.33,-30.39,0,*6B
1517007799.99,2663,9.0,73912.3,-4.27,-30.55,-30.67,0,*61
1517007801.23,2664,9.0,73914.3,-4.27,-30.67,-30.67,0,*67
1517007802.49,2665,9.0,73912.3,-4.27,-30.33,-30.55,0,*66
1517007803.74,2666,9.0,73910.8,-4.27,-30.33,-30.39,0,*6F
1517007804.98,2667,9.0,73914.0,-4.27,-30.23,-30.33,0,*65
1517007806.23,2668,9.0,73910.8,-4.27,-30.33,-30.39,0,*61
1517007807.5,2669,9.0,73912.0,-4.29,-30.61,-30.73,0,*67
1517007808.78,2670,9.0,73910.5,-4.27,-30.55,-30.73,0,*66
1517007810.06,2671,9.0,73904.8,-4.27,-30.39,-30.51,0,*6D
1517007811.35,2672,9.0,73908.5,-4.27,-30.73,-30.73,0,*60
1517007812.62,2673,9.0,73908.5,-4.29,-30.77,-30.89,0,*6E
1517007813.88,2674,9.0,73906.8,-4.29,-30.89,-30.95,0,*65
1517007815.14,2675,9.0,73914.0,-4.29,-30.61,-30.89,0,*6F
1517007816.37,2676,9.0,73914.5,-4.33,-30.39,-30.45,0,*6A
1517007817.62,2677,9.0,73912.8,-4.29,-30.39,-30.55,0,*61
1517007818.83,2678,9.0,73914.0,-4.29,-30.23,-30.27,0,*60
1517007820.06,2679,9.0,73914.0,-4.33,-30.27,-30.39,0,*61
1517007821.28,2680,9.0,73914.0,-4.29,-30.27,-30.27,0,*63
1517007822.51,2681,9.0,73914.3,-4.29,-30.23,-30.39,0,*69
1517007823.74,2682,9.0,73912.0,-4.29,-30.45,-30.55,0,*60
1517007824.97,2683,9.0,73908.5,-4.29,-30.39,-30.45,0,*6B
1517007826.2,2684,9.0,73912.0,-4.29,-30.23,-30.39,0,*6C
1517007827.45,2685,9.0,73908.5,-4.29,-30.39,-30.55,0,*6C
1517007828.71,2686,9.0,73914.0,-4.29,-30.55,-30.55,0,*65
1517007829.92,2687,9.0,73910.8,-4.29,-30.27,-30.45,0,*60
1517007831.13,2688,9.0,73910.3,-4.29,-30.45,-30.45,0,*6B
1517007832.36,2689,9.0,73908.8,-4.29,-30.39,-30.45,0,*61
1517007833.59,2690,9.0,73910.8,-4.29,-30.39,-30.45,0,*69
1517007834.8,2691,9.0,73906.8,-4.29,-30.11,-30.27,0,*66
1517007836.06,2692,9.0,73908.0,-4.27,-30.33,-30.39,0,*64
1517007837.34,2693,9.0,73910.3,-4.27,-30.17,-30.39,0,*63
1517007838.62,2694,9.0,73906.8,-4.27,-30.39,-30.51,0,*66
1517007839.89,2695,9.0,73906.8,-4.27,-30.55,-30.55,0,*69
1517007841.16,2696,9.0,73904.3,-4.27,-30.67,-30.73,0,*6F
1517007842.4,2697,9.0,73906.3,-4.27,-30.67,-30.83,0,*61
1517007843.67,2698,9.0,73904.0,-4.27,-30.73,-30.83,0,*6B
1517007844.94,2699,9.0,73906.0,-4.29,-30.73,-30.77,0,*6F
1517007846.21,2700,9.0,73900.0,-4.29,-30.73,-30.77,0,*6E
1517007847.49,2701,9.0,73902.5,-4.29,-30.77,-30.77,0,*6B
1517007848.76,2702,9.0,73908.3,-4.29,-30.73,-30.77,0,*6C
1517007850.03,2703,9.0,73908.8,-4.29,-30.73,-30.89,0,*6C
1517007851.3,2704,9.0,73912.3,-4.29,-30.73,-30.77,0,*6A
1517007852.57,2705,9.0,73910.8,-4.29,-30.73,-30.77,0,*6B
1517007853.81,2706,9.0,73912.8,-4.29,-30.27,-30.39,0,*63
1517007855.04,2707,9.0,73912.0,-4.29,-30.45,-30.55,0,*6C
1517007856.29,2708,9.0,73916.3,-4.33,-30.55,-30.73,0,*6D
1517007857.52,2709,9.0,73914.8,-4.29,-30.45,-30.55,0,*62
1517007858.75,2710,9.0,73912.0,-4.29,-30.55,-30.45,0,*6A
1517007859.98,2711,9.0,73908.8,-4.33,-30.39,-30.45,0,*6A
1517007861.24,2712,9.0,73912.5,-4.33,-30.55,-30.73,0,*66
1517007862.51,2713,9.0,73914.3,-4.33,-30.61,-30.77,0,*64
1517007863.77,2714,9.0,73912.8,-4.33,-30.73,-30.77,0,*60
1517007865.04,2715,9.0,73916.3,-4.29,-30.61,-30.61,0,*6E
1517007866.3,2716,9.0,73912.0,-4.33,-30.61,-30.73,0,*65
1517007867.57,2717,9.0,73914.5,-4.33,-30.73,-30.89,0,*62
1517007868.83,2718,9.0,73916.0,-4.33,-30.73,-30.77,0,*6C
1517007870.07,2719,9.0,73912.3,-4.29,-30.45,-30.61,0,*64
1517007871.28,2720,9.0,73914.8,-4.33,-30.27,-30.45,0,*67
1517007872.54,2721,9.0,73910.0,-4.29,-30.05,-30.39,0,*66
1517007873.77,2722,9.0,73910.8,-4.33,-30.45,-30.61,0,*67
1517007875.04,2723,9.0,73912.0,-4.33,-30.73,-30.89,0,*65
1517007876.31,2724,9.0,73912.0,-4.33,-30.73,-30.77,0,*63
1517007877.58,2725,9.0,73908.5,-4.29,-30.77,-30.77,0,*6D
1517007878.84,2726,9.0,73910.8,-4.29,-30.89,-30.95,0,*63
1517007880.11,2727,9.0,73912.0,-4.33,-30.73,-30.89,0,*61
1517007881.37,2728,9.0,73910.5,-4.33,-30.77,-30.89,0,*6A
1517007882.64,2729,9.0,73910.3,-4.33,-30.77,-30.89,0,*6B
1517007883.89,2730,9.0,73908.5,-4.35,-30.83,-30.95,0,*63
1517007885.18,2731,9.0,73910.8,-4.35,-30.77,-30.95,0,*69
1517007886.44,2732,9.0,73910.3,-4.33,-30.77,-30.77,0,*60
1517007887.71,2733,9.0,73914.8,-4.33,-30.73,-30.73,0,*61
1517007888.98,2734,9.0,73910.8,-4.33,-30.77,-30.77,0,*66
1517007890.27,2735,9.0,73912.3,-4.35,-30.61,-30.77,0,*66
1517007891.53,2736,9.0,73910.0,-4.35,-30.61,-30.67,0,*64
1517007892.79,2737,9.0,73912.8,-4.35,-30.61,-30.67,0,*65
1517007894.06,2738,9.0,73912.5,-4.33,-30.73,-30.73,0,*6A
1517007895.31,2739,9.0,73918.3,-4.35,-30.45,-30.51,0,*68
1517007896.55,2740,9.0,73914.3,-4.33,-30.39,-30.55,0,*6F
1517007897.82,2741,9.0,73910.8,-4.29,-30.55,-30.73,0,*6B
1517007899.1,2742,9.0,73910.8,-4.35,-30.51,-30.61,0,*62
1517007900.37,2743,9.0,73908.8,-4.35,-30.77,-30.83,0,*6B
1517007901.63,2744,9.0,73914.0,-4.35,-30.67,-30.61,0,*61
1517007902.89,2745,9.0,73912.0,-4.33,-30.55,-30.61,0,*67
1517007904.16,2746,9.0,73908.8,-4.33,-30.77,-30.89,0,*62
1517007905.42,2747,9.0,73912.0,-4.33,-30.77,-30.89,0,*63
1517007906.71,2748,9.0,73910.3,-4.35,-30.77,-30.77,0,*6B
1517007907.91,2749,9.0,73914.5,-4.37,-30.33,-30.45,0,*69
1517007909.14,2750,9.0,73914.8,-4.35,-30.33,-30.45,0,*63
1517007910.41,2751,9.0,73914.3,-4.35,-30.51,-30.51,0,*63
1517007911.69,2752,9.0,73910.3,-4.35,-30.51,-30.51,0,*60
1517007912.94,2753,9.0,73910.5,-4.35,-30.45,-30.51,0,*64
1517007914.23,2754,9.0,73910.0,-4.35,-30.51,-30.61,0,*65
1517007915.49,2755,9.0,73912.0,-4.35,-30.61,-30.67,0,*61
1517007916.78,2756,9.0,73912.5,-4.35,-30.61,-30.61,0,*64
1517007918.04,2757,9.0,73914.5,-4.35,-30.95,-30.83,0,*62
1517007919.28,2758,9.0,73912.0,-4.35,-30.67,-30.83,0,*60
1517007920.55,2759,9.0,73914.0,-4.35,-30.61,-30.67,0,*6D
1517007921.84,2760,9.0,73910.5,-4.35,-30.77,-30.77,0,*61
1517007923.08,2761,9.0,73912.3,-4.35,-30.67,-30.67,0,*60
1517007924.29,2762,9.0,73910.3,-4.37,-30.67,-30.83,0,*6B
1517007925.57,2763,9.0,73908.5,-4.35,-30.61,-30.61,0,*62
1517007926.79,2764,9.0,73910.3,-4.37,-30.83,-30.95,0,*60
1517007928.03,2765,9.0,73906.5,-4.37,-30.67,-30.77,0,*67
1517007929.28,2766,9.0,73910.3,-4.35,-30.83,-30.95,0,*60
1517007930.55,2767,9.0,73912.5,-4.35,-30.67,-30.77,0,*67
1517007931.78,2768,9.0,73912.3,-4.37,-30.95,-30.83,0,*6C
1517007933.04,2769,9.0,73912.0,-4.35,-30.83,-30.95,0,*6F
1517007934.29,2770,9.0,73912.0,-4.37,-30.51,-30.61,0,*61
1517007935.54,2771,9.0,73914.0,-4.37,-30.51,-30.61,0,*60
1517007936.73,2772,9.0,73914.5,-4.37,-30.33,-30.45,0,*61
1517007937.96,2773,9.0,73912.0,-4.37,-30.17,-30.33,0,*67
1517007939.16,2774,9.0,73912.0,-4.37,-30.11,-30.33,0,*66
1517007940.44,2775,9.0,73908.3,-4.35,-30.51,-30.61,0,*66
1517007941.7,2776,9.0,73908.5,-4.35,-30.17,-30.33,0,*60
1517007942.93,2777,9.0,73906.8,-4.35,-30.45,-30.45,0,*67
1517007944.19,2778,9.0,73908.5,-4.35,-30.61,-30.67,0,*6E
1517007945.48,2779,9.0,73908.8,-4.35,-30.51,-30.61,0,*6A
1517007946.74,2780,9.0,73910.0,-4.35,-30.33,-30.61,0,*68
1517007947.99,2781,9.0,73908.8,-4.35,-30.33,-30.51,0,*6A
1517007949.27,2782,9.0,73910.5,-4.35,-30.51,-30.61,0,*6E
1517007950.47,2783,9.0,73904.5,-4.37,-30.11,-30.33,0,*6E
1517007951.7,2784,9.0,73908.8,-4.35,-30.33,-30.45,0,*6A
1517007952.99,2785,9.0,73910.3,-4.35,-30.61,-30.77,0,*6D
1517007954.28,2786,9.0,73908.0,-4.35,-30.77,-30.77,0,*69
1517007955.55,2787,9.0,73906.8,-4.35,-30.77,-30.83,0,*63
1517007956.8,2788,9.0,73910.8,-4.37,-30.77,-30.77,0,*65
1517007958.1,2789,9.0,73910.0,-4.35,-30.77,-30.77,0,*66
1517007959.38,2790,9.0,73912.0,-4.35,-30.61,-30.61,0,*6E
1517007960.61,2791,9.0,73914.3,-4.37,-30.67,-30.77,0,*6C
1517007961.9,2792,9.0,73908.3,-4.35,-30.51,-30.61,0,*6F
1517007963.1,2793,9.0,73906.5,-4.37,-30.67,-30.67,0,*6F
1517007964.37,2794,9.0,73908.0,-4.35,-30.77,-30.83,0,*61
1517007965.65,2795,9.0,73908.3,-4.35,-30.77,-30.95,0,*67
1517007966.88,2796,9.0,73908.0,-4.37,-30.77,-30.83,0,*61
1517007968.14,2797,9.06,73914.8,-4.35,-30.83,-30.95,0,*6E
1517007969.37,2798,9.0,73912.3,-4.37,-30.95,-30.83,0,*63
1517007970.6,2799,9.0,73910.0,-4.37,-30.77,-30.83,0,*6E
1517007971.82,2800,9.0,73908.5,-4.37,-30.83,-30.95,0,*6D
1517007973.01,2801,9.0,73912.0,-4.37,-30.83,-31.01,0,*60
1517007974.26,2802,9.0,73912.5,-4.37,-30.51,-30.51,0,*68
1517007975.54,2803,9.0,73914.5,-4.35,-30.51,-30.51,0,*6B
1517007976.74,2804,9.0,73912.0,-4.37,-30.67,-30.67,0,*6E
1517007978.03,2805,9.0,73916.0,-4.35,-30.51,-30.61,0,*6E
1517007979.25,2806,9.0,73912.8,-4.37,-30.61,-30.67,0,*6A
1517007980.47,2807,9.0,73910.3,-4.37,-30.45,-30.51,0,*68
1517007981.72,2808,9.0,73914.8,-4.37,-30.61,-30.77,0,*65
1517007982.92,2809,9.0,73912.8,-4.37,-30.67,-30.67,0,*63
1517007984.15,2810,9.0,73914.0,-4.37,-30.61,-30.67,0,*6D
1517007985.38,2811,9.0,73914.0,-4.37,-30.67,-30.77,0,*6B
1517007986.65,2812,9.0,73912.8,-4.35,-30.67,-30.77,0,*6A
1517007987.88,2813,9.0,73914.0,-4.37,-30.61,-30.67,0,*6E
1517007989.08,2814,9.0,73912.5,-4.37,-30.83,-30.83,0,*6F
1517007990.31,2815,9.0,73914.3,-4.39,-30.67,-30.67,0,*60
1517007991.53,2816,9.0,73910.5,-4.37,-30.33,-30.51,0,*69
1517007992.75,2817,9.0,73912.5,-4.37,-30.33,-30.51,0,*68
1517007994.01,2818,9.0,73912.3,-4.39,-30.51,-30.55,0,*69
1517007995.25,2819,9.0,73912.3,-4.37,-30.51,-30.51,0,*62
1517007996.5,2820,9.0,73912.8,-4.39,-30.55,-30.67,0,*67
1517007997.77,2821,9.0,73908.5,-4.39,-30.73,-30.73,0,*67
1517007999.02,2822,9.0,73914.3,-4.37,-30.51,-30.77,0,*6E
1517008000.24,2823,9.0,73912.3,-4.37,-30.45,-30.51,0,*6E
1517008001.46,2824,9.0,73912.3,-4.37,-30.33,-30.51,0,*68
1517008002.68,2825,9.0,73912.3,-4.37,-30.33,-30.61,0,*6A
1517008003.93,2826,9.0,73908.5,-4.37,-30.51,-30.61,0,*6D
1517008005.15,2827,9.0,73914.0,-4.37,-30.33,-30.51,0,*6B
1517008006.37,2828,9.0,73910.5,-4.37,-30.61,-30.67,0,*66
1517008007.61,2829,9.0,73908.0,-4.37,-30.51,-30.51,0,*61
1517008008.87,2830,9.0,73914.0,-4.39,-30.55,-30.55,0,*67
1517008010.09,2831,9.0,73912.0,-4.37,-30.45,-30.61,0,*6E
1517008011.35,2832,9.0,73910.8,-4.37,-30.61,-30.77,0,*6C
1517008012.57,2833,9.0,73908.0,-4.39,-30.83,-31.01,0,*6F
1517008013.82,2834,9.0,73908.0,-4.39,-30.67,-30.89,0,*63
1517008015.05,2835,9.0,73906.3,-4.39,-30.67,-30.83,0,*68
1517008016.3,2836,9.0,73906.3,-4.39,-30.83,-30.89,0,*6B
1517008017.56,2837,9.0,73906.8,-4.39,-30.83,-30.89,0,*6A
1517008018.79,2838,9.0,73904.3,-4.37,-30.77,-30.83,0,*6A
1517008020.04,2839,9.0,73912.8,-4.39,-30.73,-30.83,0,*61
1517008021.27,2840,9.0,73912.8,-4.39,-30.67,-30.83,0,*6A
1517008022.47,2841,9.0,73914.5,-4.41,-30.83,-31.01,0,*65
1517008023.71,2842,9.0,73912.0,-4.37,-30.51,-30.51,0,*6C
1517008024.96,2843,9.0,73908.8,-4.39,-30.67,-30.73,0,*66
1517008026.25,2844,9.0,73912.0,-4.35,-30.73,-30.73,0,*68
1517008027.48,2845,9.0,73912.8,-4.41,-30.67,-30.73,0,*6F
1517008028.74,2846,9.0,73914.3,-4.39,-30.67,-30.73,0,*63
1517008029.97,2847,9.0,73914.3,-4.39,-30.67,-30.67,0,*67
1517008031.2,2848,9.0,73918.8,-4.39,-30.83,-30.83,0,*68
1517008032.46,2849,9.0,73914.8,-4.39,-30.51,-30.55,0,*6D
1517008033.71,2850,9.0,73914.5,-4.41,-30.17,-30.39,0,*62
1517008034.97,2851,9.0,73910.5,-4.39,-30.51,-30.55,0,*64
1517008036.19,2852,9.0,73912.5,-4.37,-30.45,-30.51,0,*68
1517008037.41,2853,9.0,73912.5,-4.41,-30.33,-30.51,0,*69
1517008038.65,2854,9.0,73914.5,-4.39,-30.23,-30.51,0,*60
1517008039.89,2855,9.0,73912.8,-4.39,-30.23,-30.51,0,*61
1517008041.13,2856,9.0,73914.5,-4.39,-30.23,-30.39,0,*6C
1517008042.37,2857,9.0,73912.8,-4.39,-30.23,-30.39,0,*6D
1517008043.63,2858,9.0,73914.3,-4.39,-30.39,-30.55,0,*63
1517008044.84,2859,9.0,73910.5,-4.37,-30.45,-30.51,0,*63
1517008046.1,2860,9.0,73910.5,-4.39,-30.51,-30.55,0,*66
1517008047.32,2861,9.0,73908.8,-4.41,-30.23,-30.51,0,*69
1517008048.56,2862,9.0,73908.8,-4.39,-30.23,-30.39,0,*6B
1517008049.76,2863,9.0,73912.3,-4.37,-30.27,-30.45,0,*6B
1517008050.99,2864,9.0,73910.5,-4.37,-30.17,-30.45,0,*6F
1517008052.21,2865,9.0,73908.3,-4.37,-30.61,-30.67,0,*6F
1517008053.44,2866,9.0,73908.3,-4.37,-30.77,-30.83,0,*61
1517008054.66,2867,9.0,73914.3,-4.37,-30.83,-30.95,0,*6C
1517008055.87,2868,9.0,73914.0,-4.37,-30.67,-30.67,0,*64
1517008057.11,2869,9.0,73908.0,-4.39,-30.73,-31.01,0,*6F
1517008058.37,2870,9.0,73910.3,-4.41,-30.73,-30.89,0,*69
1517008059.64,2871,9.0,73912.8,-4.39,-30.55,-30.73,0,*66
1517008060.91,2872,9.0,73906.5,-4.39,-30.89,-30.89,0,*61
1517008062.12,2873,9.0,73910.5,-4.37,-30.67,-30.67,0,*6E
1517008063.35,2874,9.0,73904.3,-4.41,-30.73,-30.83,0,*67
1517008064.62,2875,9.0,73910.8,-4.39,-30.73,-30.89,0,*63
1517008065.83,2876,9.0,73910.8,-4.41,-30.83,-30.83,0,*6A
1517008067.08,2877,9.0,73910.5,-4.39,-30.55,-30.67,0,*65
1517008068.29,2878,9.0,73910.8,-4.37,-30.45,-30.51,0,*60
1517008069.51,2879,9.0,73914.3,-4.37,-30.45,-30.51,0,*61
1517008070.77,2880,9.0,73912.0,-4.39,-30.39,-30.55,0,*66
1517008072.03,2881,9.0,73918.0,-4.39,-30.39,-30.55,0,*67
1517008073.27,2882,9.0,73918.3,-4.39,-30.17,-30.23,0,*69
1517008074.5,2883,9.0,73914.3,-4.39,-29.83,-29.95,0,*68
1517008075.71,2884,9.0,73910.8,-4.39,-29.79,-29.95,0,*6A
1517008076.96,2885,9.0,73908.0,-4.39,-29.95,-30.01,0,*6C
1517008078.23,2886,9.0,73906.3,-4.39,-30.01,-30.17,0,*6D
1517008079.49,2887,9.0,73908.3,-4.35,-30.17,-30.45,0,*60
1517008080.76,2888,9.0,73906.5,-4.35,-30.17,-30.33,0,*6E
1517008081.95,2889,9.0,73906.5,-4.37,-30.33,-30.45,0,*6A
1517008083.2,2890,9.0,73904.5,-4.35,-30.05,-30.27,0,*61
1517008084.44,2891,9.0,73904.3,-4.35,-30.27,-30.45,0,*64
1517008085.72,2892,9.0,73900.5,-4.35,-30.61,-30.61,0,*63
1517008086.98,2893,9.0,73902.5,-4.37,-30.77,-30.77,0,*60
1517008088.19,2894,9.0,73900.5,-4.37,-30.83,-30.83,0,*67
1517008089.44,2895,9.0,73902.0,-4.35,-30.83,-30.95,0,*63
1517008090.69,2896,9.0,73906.5,-4.35,-30.83,-30.83,0,*67
1517008091.91,2897,9.0,73902.8,-4.37,-30.83,-30.95,0,*63
1517008093.16,2898,9.0,73900.8,-4.37,-30.51,-30.77,0,*6F
1517008094.39,2899,9.0,73906.3,-4.37,-30.67,-30.77,0,*6B
1517008095.63,2900,9.0,73904.5,-4.37,-30.51,-30.51,0,*6B
1517008096.88,2901,9.0,73902.3,-4.37,-30.51,-30.51,0,*6A
1517008098.12,2902,9.0,73904.3,-4.37,-30.51,-30.51,0,*69
1517008099.32,2903,9.0,73914.5,-4.37,-30.27,-30.33,0,*6D
1517008100.53,2904,9.0,73914.3,-4.37,-30.45,-30.51,0,*6A
1517008101.75,2905,9.0,73914.3,-4.37,-30.45,-30.51,0,*6B
1517008102.97,2906,9.0,73914.0,-4.37,-30.45,-30.61,0,*6B
1517008104.22,2907,9.0,73910.3,-4.37,-30.61,-30.61,0,*6C
1517008105.45,2908,9.0,73912.5,-4.37,-30.67,-30.77,0,*62
1517008106.7,2909,9.0,73910.8,-4.37,-30.61,-30.61,0,*62
1517008107.9,2910,9.0,73906.3,-4.37,-30.33,-30.45,0,*6B
1517008109.14,2911,9.0,73908.0,-4.37,-30.61,-30.61,0,*6B
1517008110.39,2912,9.0,73910.0,-4.35,-30.45,-30.51,0,*6F
1517008111.64,2913,9.0,73908.5,-4.37,-30.51,-30.61,0,*6A
1517008112.9,2914,9.0,73912.0,-4.35,-30.33,-30.51,0,*68
1517008114.11,2915,9.0,73910.0,-4.37,-30.45,-30.51,0,*6A
1517008115.33,2916,9.0,73910.0,-4.37,-30.45,-30.61,0,*6A
1517008116.56,2917,9.0,73910.8,-4.37,-30.17,-30.27,0,*6E
1517008117.81,2918,9.0,73906.3,-4.35,-30.17,-30.27,0,*63
1517008119.05,2919,9.0,73906.8,-4.35,-30.27,-30.33,0,*64
1517008120.28,2920,9.0,73902.0,-4.35,-30.33,-30.45,0,*6A
1517008121.47,2921,9.0,73902.0,-4.37,-30.45,-30.45,0,*68
1517008122.73,2922,9.0,73896.3,-4.35,-30.61,-30.67,0,*6F
1517008124.01,2923,9.0,73900.0,-4.35,-30.51,-30.51,0,*68